[[{"header":{"parameterUnit":"m.s-1","parameterCategory":1,"la1":30.2991,"la2":30.254,"lo1":-89.0895,"lo2":-89.0444,"dy":0.0017,"dx":0.0017,"nx":28,"ny":28,"refTime":"2024-10-19T03:00:00:Z","depth":0,"parameterNumber":2,"parameterNumberName":"U-component_of_WINDS"},"data":[0,0,0,0,0,0,0,0,0,0,0,0,0,0,0,0,0,0,0,0,0,0,0,0,0,0,0,0,0,0,0,0,0,0,0,0,0,0,0,0,0,0,0,0,0,0,0,0,0,0,0,0,0,0,0,0,0,0,-4.022,-4.022,0,-4.022,-4.022,-4.022,-4.0053,-4.0049,-4.0045,-4.0041,-4.0039,-4.0043,-4.0047,0,0,0,0,0,0,0,0,0,0,0,0,0,-4.0077,-4.008,-4.022,-4.022,-4.022,-4.022,-4.022,-4.022,-4.0054,-4.0049,-4.0044,-4.0039,-4.0038,-4.0042,-4.0047,0,0,0,0,0,0,0,0,0,0,0,0,0,-4.0114,-4.0082,-4.022,-4.0138,-4.013,-4.022,-4.022,-4.022,-4.0055,-4.0049,-4.0042,-4.0036,-4.0036,-4.0042,-4.0048,-4.0216,0,0,-4.0066,-4.0069,0,0,0,0,0,0,0,0,-4.0112,-4.012,-4.015,-4.0144,-4.0135,-4.013,-4.0168,-4.0218,-4.0057,-4.0084,-4.004,-4.0033,-4.0075,-4.0077,-4.0091,-4.0216,-4.0216,-4.0067,-4.0071,-4.0073,-4.0075,0,0,0,0,0,0,0,-4.011,-4.0119,-4.022,-4.0151,-4.0142,-4.01,-4.0098,-4.0177,-4.0116,-4.0081,-4.0069,-4.0071,-4.0069,-4.0086,-4.009,-4.0216,-4.0067,-4.0072,-4.0076,-4.0078,-4.0479,-4.0486,0,0,0,0,0,0,-4.0119,-4.0118,-4.022,-4.022,-4.0108,-4.0108,-4.0106,-4.0138,-4.0114,-4.0105,-4.0077,-4.0063,-4.0079,-4.0083,-4.0089,-4.0285,-4.0073,-4.0079,-4.0082,-4.0472,-4.048,-4.0488,0,0,0,0,0,0,-4.0116,-4.013,-4.022,-4.0166,-4.0174,-4.0118,-4.0155,-4.0142,-4.0158,-4.0111,-4.0099,-4.0105,-4.0074,-4.0081,-4.0186,-4.0283,-4.0081,-4.0087,-4.0464,-4.0475,-4.0484,-4.0679,0,0,0,0,0,0,-4.0113,-4.013,-4.0193,-4.0168,-4.0178,-4.0318,-4.0161,-4.0146,-4.0169,-4.0152,-4.0135,-4.0126,-4.0069,-4.0178,-4.0192,-4.0287,-4.0092,-4.0455,-4.0468,-4.0481,-4.0663,-4.0694,-4.0721,0,0,0,0,0,-4.0108,-4.0248,-4.0198,-4.0211,-4.0256,-4.0324,-4.0329,-4.0261,-4.0178,-4.0241,-4.0211,-4.0126,-4.027,-4.019,-4.0204,-4.0303,-4.0448,-4.0465,-4.048,-4.065,-4.0688,-4.072,0,0,0,0,0,0,-4.0285,-4.0243,-4.0187,-4.0322,-4.0328,-4.0296,-4.0373,-4.0304,-4.0333,-4.0316,-4.023,-4.0228,-4.0347,-4.0335,-4.0247,-4.0465,-4.0344,-4.0364,-4.0469,-4.0504,-4.0533,-4.0534,-4.0097,0,0,0,0,0,-4.034,-4.0399,-4.0358,-4.0482,-4.0488,-4.0431,-4.0458,-4.0405,-4.0407,-4.0409,-4.0386,-4.0392,-4.0438,-4.047,-4.051,-4.066,-4.0654,-4.0735,-4.0764,-4.0788,-4.0806,-4.0886,-4.0922,-4.054,-4.054,-4.054,0,0,-4.0454,-4.0438,-4.048,-4.0517,-4.0515,-4.0578,-4.0434,-4.0506,-4.0552,-4.0419,-4.0518,-4.0502,-4.0502,-4.0631,-4.0687,-4.0625,-4.091,-4.0808,-4.0828,-4.0833,-4.0906,-4.0942,-4.0974,-4.0551,-4.0549,-4.0547,0,0,-4.0693,-4.0687,-4.079,-4.0791,-4.079,-4.0751,-4.0776,-4.0755,-4.0739,-4.0837,-4.0739,-4.0792,-4.0873,-4.0877,-4.089,-4.1132,-4.1056,-4.1147,-4.1299,-4.1377,-4.1408,-4.1434,-4.1521,-4.1554,-4.1165,-4.1166,-4.1166,0,-4.0835,-4.0926,-4.0851,-4.0931,-4.095,-4.0833,-4.0936,-4.0941,-4.0954,-4.0969,-4.09,-4.1,-4.0992,-4.112,-4.118,-4.1193,-4.122,-4.1149,-4.1409,-4.1435,-4.1458,-4.1541,-4.1574,-4.1177,-4.1176,-4.1174,-4.1173,0,-4.1101,-4.1165,-4.1248,-4.1264,-4.1292,-4.1383,-4.1322,-4.1359,-4.1304,-4.1273,-4.1374,-4.136,-4.1395,-4.1421,-4.1368,-4.1543,-4.1505,-4.1424,-4.1301,-4.1507,-4.1583,-4.1614,-4.1193,-4.1189,-4.1186,-4.1183,0,0,-4.1452,-4.1426,-4.1458,-4.1464,-4.1454,-4.1503,-4.1588,-4.1623,-4.1658,-4.167,-4.174,-4.1812,-4.1737,-4.1752,-4.1697,-4.1767,-4.196,-4.1676,-4.1675,-4.1731,-4.2154,-4.2216,-4.2254,-4.1909,-4.1915,-4.1919,-4.2154,0,-4.1686,-4.1831,-4.1766,-4.1918,-4.1978,-4.1868,-4.1942,-4.1945,-4.1918,-4.1963,-4.1932,-4.1985,-4.1882,-4.189,-4.1953,-4.1924,-4.2044,-4.1905,-4.1974,-4.1978,-4.1979,-4.2294,-4.236,-4.2582,-4.2183,-4.2188,-4.2192,0,-4.1977,-4.2003,-4.2162,-4.2143,-4.2165,-4.2233,-4.226,-4.2306,-4.2306,-4.2281,-4.2299,-4.2229,-4.2311,-4.2189,-4.2301,-4.2208,-4.2232,-4.2222,-4.2229,-4.2234,-4.2099,-4.2309,-4.2651,-4.2686,-4.2238,-4.2234,-4.2231,0,-4.222,-4.2294,-4.2398,-4.2407,-4.2387,-4.2437,-4.2431,-4.2425,-4.2451,-4.2474,-4.249,-4.2522,-4.2541,-4.2568,-4.2509,-4.2425,-4.2631,-4.2502,-4.2613,-4.2615,-4.2662,-4.2661,-4.3016,-4.2676,-4.2676,-4.2675,-4.2674,0,-4.2488,-4.259,-4.2507,-4.2572,-4.2683,-4.2607,-4.2718,-4.27,-4.2695,-4.2754,-4.266,-4.2718,-4.2636,-4.2685,-4.2639,-4.274,-4.2749,-4.2732,-4.2719,-4.2741,-4.2744,-4.2757,-4.2741,-4.2684,-4.2682,-4.268,-4.2678,0,-4.2779,-4.2727,-4.2834,-4.2807,-4.2802,-4.2885,-4.2861,-4.2919,-4.2885,-4.2961,-4.2975,-4.2922,-4.2975,-4.2919,-4.2968,-4.2937,-4.3074,-4.3037,-4.3074,-4.3064,-4.3179,-4.317,-4.3556,-4.3603,-4.3232,-4.3236,-4.3239,0,-4.2954,-4.303,-4.3011,-4.3044,-4.3044,-4.3098,-4.3123,-4.3051,-4.3082,-4.3088,-4.3146,-4.3192,-4.3224,-4.3314,-4.328,-4.3317,-4.3282,-4.3415,-4.3287,-4.3308,-4.3286,-4.3283,-4.3291,-4.3442,-4.3446,-4.345,-4.3452,0,-4.3271,-4.3242,-4.3283,-4.3316,-4.335,-4.3372,-4.3386,-4.3419,-4.3343,-4.3382,-4.3436,-4.3462,-4.3512,-4.3559,-4.3586,-4.3578,-4.3505,-4.3493,-4.3521,-4.3545,-4.3565,-4.3557,-4.3147,-4.3485,-4.3481,-4.3479,-4.3477,-4.3476,-4.351,-4.3573,-4.357,-4.3619,-4.3622,-4.3638,-4.3692,-4.3665,-4.3709,-4.3745,-4.3699,-4.3766,-4.3764,-4.3793,-4.3795,-4.3846,-4.3789,-4.3829,-4.384,-4.3851,-4.3869,-4.3555,-4.385,-4.3849,-4.3848,-4.3847,-4.3847,0,-4.3824,-4.3816,-4.3862,-4.3886,-4.3925,-4.3851,-4.3863,-4.3901,-4.3961,-4.3965,-4.4,-4.4062,-4.4107,-4.4076,-4.4114,-4.4161,-4.4128,-4.4173,-4.417,-4.417,-4.3916,-4.3889,-4.42,-4.42,-4.42,-4.42,-4.42,-4.4199,-4.3992,-4.4095,-4.4065,-4.4169,-4.4159,-4.4225,-4.4239,-4.4253,-4.4256,-4.433,-4.4367,-4.4347,-4.4338,-4.4374,-4.4413,-4.4402,-4.4421,-4.448,-4.4458,-4.4222,-4.4188,-4.4155,-4.4129,-4.4484,-4.4485,-4.4707,-4.4709,-4.4711]},{"header":{"parameterUnit":"m.s-1","parameterCategory":1,"la1":30.2991,"la2":30.254,"lo1":-89.0895,"lo2":-89.0444,"dy":0.0017,"dx":0.0017,"nx":28,"ny":28,"refTime":"2024-10-19T03:00:00:Z","depth":0,"parameterNumber":3,"parameterNumberName":"V-component_of_WINDS"},"data":[0,0,0,0,0,0,0,0,0,0,0,0,0,0,0,0,0,0,0,0,0,0,0,0,0,0,0,0,0,0,0,0,0,0,0,0,0,0,0,0,0,0,0,0,0,0,0,0,0,0,0,0,0,0,0,0,0,0,-1.6682,-1.6683,0,-1.6778,-1.6779,-1.678,-1.68,-1.6799,-1.6799,-1.6798,-1.6894,-1.6897,-1.69,0,0,0,0,0,0,0,0,0,0,0,0,0,-1.6515,-1.6518,-1.6682,-1.6684,-1.6685,-1.6778,-1.6779,-1.678,-1.68,-1.6799,-1.6798,-1.6798,-1.6893,-1.6896,-1.69,0,0,0,0,0,0,0,0,0,0,0,0,0,-1.6596,-1.6519,-1.6682,-1.6706,-1.6709,-1.6777,-1.6779,-1.678,-1.68,-1.6799,-1.6798,-1.6797,-1.6891,-1.6896,-1.6901,-1.6951,0,0,-1.6915,-1.6918,0,0,0,0,0,0,0,0,-1.6592,-1.6603,-1.6701,-1.6704,-1.6708,-1.6776,-1.6755,-1.6838,-1.6801,-1.6766,-1.6798,-1.6797,-1.6855,-1.6863,-1.6883,-1.6956,-1.696,-1.6916,-1.6919,-1.6921,-1.6922,0,0,0,0,0,0,0,-1.6586,-1.6599,-1.672,-1.6703,-1.6707,-1.6711,-1.6721,-1.6771,-1.6815,-1.6769,-1.677,-1.6781,-1.6857,-1.6878,-1.6885,-1.6961,-1.6916,-1.692,-1.6923,-1.6925,-1.708,-1.7081,0,0,0,0,0,0,-1.6577,-1.6594,-1.6717,-1.6723,-1.6646,-1.6715,-1.6726,-1.6755,-1.6815,-1.6823,-1.6782,-1.6782,-1.6871,-1.688,-1.6889,-1.6952,-1.6921,-1.6925,-1.6928,-1.7079,-1.708,-1.7081,0,0,0,0,0,0,-1.6573,-1.6587,-1.6713,-1.6659,-1.6675,-1.6719,-1.6751,-1.6758,-1.6779,-1.6825,-1.6833,-1.6796,-1.687,-1.6882,-1.6936,-1.6956,-1.6927,-1.6932,-1.7077,-1.7079,-1.7081,-1.7079,0,0,0,0,0,0,-1.6568,-1.6586,-1.6607,-1.6659,-1.6678,-1.6759,-1.6752,-1.676,-1.6788,-1.6788,-1.684,-1.6848,-1.687,-1.6928,-1.694,-1.6962,-1.6936,-1.7076,-1.7078,-1.708,-1.7077,-1.708,-1.7083,0,0,0,0,0,-1.6562,-1.6602,-1.6608,-1.6622,-1.6705,-1.676,-1.6771,-1.6797,-1.6789,-1.681,-1.6839,-1.6846,-1.6951,-1.6934,-1.6947,-1.6971,-1.7074,-1.7077,-1.708,-1.7076,-1.708,-1.7083,0,0,0,0,0,0,-1.655,-1.6609,-1.6616,-1.6675,-1.6712,-1.6764,-1.6791,-1.68,-1.684,-1.6839,-1.6869,-1.688,-1.6932,-1.6956,-1.6936,-1.7022,-1.7012,-1.7018,-1.7005,-1.7009,-1.7011,-1.7005,-1.694,0,0,0,0,0,-1.6555,-1.6596,-1.6645,-1.6691,-1.671,-1.6747,-1.6772,-1.6788,-1.6829,-1.6845,-1.6878,-1.6916,-1.6957,-1.6984,-1.7025,-1.708,-1.7092,-1.7103,-1.7106,-1.7108,-1.7113,-1.7143,-1.7149,-1.7091,-1.709,-1.709,0,0,-1.6564,-1.6601,-1.6625,-1.669,-1.6721,-1.6762,-1.676,-1.6804,-1.6835,-1.6851,-1.6904,-1.6929,-1.6973,-1.7028,-1.7054,-1.705,-1.7131,-1.7111,-1.7113,-1.7117,-1.7147,-1.7152,-1.7157,-1.7092,-1.7092,-1.7092,0,0,-1.6602,-1.6634,-1.6677,-1.6708,-1.6755,-1.6779,-1.6789,-1.6839,-1.6856,-1.691,-1.6923,-1.6959,-1.703,-1.7061,-1.7086,-1.7134,-1.7142,-1.7146,-1.7161,-1.7191,-1.7196,-1.72,-1.7217,-1.7223,-1.715,-1.715,-1.715,0,-1.6607,-1.6671,-1.6697,-1.674,-1.6768,-1.6784,-1.6827,-1.6856,-1.6914,-1.6932,-1.6927,-1.7016,-1.7047,-1.7109,-1.712,-1.714,-1.7152,-1.7141,-1.7193,-1.7197,-1.7202,-1.7218,-1.7225,-1.7151,-1.7151,-1.7151,-1.7151,0,-1.6675,-1.6718,-1.6746,-1.6803,-1.6833,-1.6876,-1.6908,-1.6935,-1.6948,-1.6972,-1.7026,-1.7063,-1.7112,-1.7127,-1.7141,-1.7191,-1.7187,-1.7187,-1.7178,-1.7207,-1.7223,-1.723,-1.7151,-1.7151,-1.7151,-1.7151,0,0,-1.671,-1.6779,-1.6789,-1.6814,-1.6867,-1.69,-1.6943,-1.6991,-1.7014,-1.7052,-1.7089,-1.7148,-1.7147,-1.7176,-1.7192,-1.7218,-1.7253,-1.7215,-1.7216,-1.7221,-1.7311,-1.7311,-1.7318,-1.7258,-1.726,-1.7261,-1.7307,0,-1.6755,-1.6832,-1.6857,-1.6921,-1.6961,-1.6977,-1.7014,-1.7049,-1.7072,-1.7109,-1.7134,-1.7176,-1.7172,-1.7189,-1.7216,-1.7243,-1.7272,-1.724,-1.7292,-1.7294,-1.7282,-1.7327,-1.7328,-1.737,-1.7314,-1.7315,-1.7316,0,-1.6818,-1.6858,-1.6927,-1.6974,-1.6991,-1.7024,-1.7069,-1.7104,-1.7144,-1.7159,-1.719,-1.7204,-1.7248,-1.7235,-1.7296,-1.7274,-1.7296,-1.7313,-1.7315,-1.7322,-1.7307,-1.7335,-1.7384,-1.7391,-1.7326,-1.7325,-1.7324,0,-1.6837,-1.6908,-1.6958,-1.6979,-1.7035,-1.7058,-1.7082,-1.7121,-1.7147,-1.7186,-1.7204,-1.7247,-1.7271,-1.7304,-1.7329,-1.7317,-1.7387,-1.7376,-1.7401,-1.74,-1.7416,-1.7415,-1.747,-1.7428,-1.7428,-1.7428,-1.7428,0,-1.6885,-1.6927,-1.6968,-1.6999,-1.7045,-1.7071,-1.7116,-1.7141,-1.7175,-1.7211,-1.7226,-1.7259,-1.7289,-1.7326,-1.7345,-1.7392,-1.7403,-1.7416,-1.7421,-1.7415,-1.7413,-1.7431,-1.7429,-1.743,-1.743,-1.7429,-1.7429,0,-1.6915,-1.6944,-1.7,-1.7048,-1.7061,-1.7093,-1.7133,-1.7163,-1.7186,-1.7231,-1.7242,-1.7279,-1.7322,-1.735,-1.7405,-1.7418,-1.747,-1.7474,-1.7457,-1.7459,-1.7482,-1.748,-1.7551,-1.7561,-1.7512,-1.7513,-1.7513,0,-1.6945,-1.6977,-1.7028,-1.7053,-1.7077,-1.7117,-1.7145,-1.7171,-1.7199,-1.7246,-1.727,-1.7314,-1.7352,-1.742,-1.7451,-1.7493,-1.7498,-1.752,-1.7505,-1.7498,-1.7499,-1.7497,-1.7501,-1.7523,-1.7523,-1.7524,-1.7524,0,-1.6994,-1.7006,-1.7046,-1.7089,-1.7122,-1.7157,-1.7193,-1.7212,-1.7244,-1.7274,-1.7319,-1.7348,-1.7404,-1.7448,-1.7493,-1.7516,-1.7526,-1.7528,-1.7536,-1.7531,-1.7521,-1.7527,-1.7464,-1.7527,-1.7527,-1.7526,-1.7526,-1.7526,-1.7025,-1.7054,-1.7095,-1.7137,-1.7167,-1.7199,-1.723,-1.7256,-1.7294,-1.7343,-1.7355,-1.7402,-1.744,-1.7501,-1.7525,-1.7562,-1.7559,-1.757,-1.7573,-1.7576,-1.7576,-1.7514,-1.757,-1.757,-1.757,-1.757,-1.757,0,-1.7076,-1.7102,-1.7141,-1.719,-1.7223,-1.7229,-1.7268,-1.7295,-1.7336,-1.7371,-1.7407,-1.7458,-1.75,-1.7534,-1.7577,-1.76,-1.7605,-1.761,-1.7609,-1.7614,-1.7576,-1.7565,-1.7605,-1.7605,-1.7605,-1.7605,-1.7605,-1.7605,-1.7106,-1.7156,-1.7172,-1.7236,-1.7262,-1.7308,-1.733,-1.736,-1.7388,-1.7444,-1.7479,-1.7501,-1.7535,-1.758,-1.7619,-1.7627,-1.7643,-1.7648,-1.7657,-1.7621,-1.7617,-1.7613,-1.7603,-1.765,-1.7651,-1.7692,-1.7693,-1.7693]}]]